Location: Baia Mare
(47.6567°N, 23.5850°E)
Time: 14:26:40
(UTC+02:00)

ISS - Pass Details

Date: 05 December 2018
Orbit: 401 x 408 km, 51.6° (Epoch: 16 December)

Event Time Altitude Azimuth Distance (km) Brightness Sun altitude
Rises 18:00:28 0° 284° (WNW) 2,318 1.0 -13.8°
Reaches altitude 10° 18:02:38 10° 293° (WNW) 1,458 -0.3 -14.2°
Maximum altitude 18:05:44 40° 4° (N) 614 -3.1 -14.7°
Enters shadow 18:06:43 30° 47° (NE) 745 -3.0 -14.8°
